,,PA_Meas_PMT16A,,PR_Meas_QMR101_102,,RH_Meas_QMH101,,SR_Meas_QMS101,,TA_Meas_QMH101,,GenWind,,GenWind,
time,status,PA,status,PR,status,RH,status,SR,status,TA,status,DirAvg,status,SpdAvg,
2014-02-14, 07:11:04,VALID,918.274,VALID,0,VALID,92.6169,VALID,53.3983,VALID,19.8978,VALID,114,VALID,0.894531,
2014-02-14, 07:12:04,VALID,918.283,VALID,0,VALID,92.5635,VALID,57.0513,VALID,19.9188,VALID,105,VALID,0.856641,
2014-02-14, 07:13:04,VALID,918.322,VALID,0,VALID,92.6321,VALID,60.167,VALID,19.9188,VALID,111,VALID,0.975781,
2014-02-14, 07:14:04,VALID,918.341,VALID,0,VALID,92.6626,VALID,63.068,VALID,19.9188,VALID,130,VALID,1.05938,
2014-02-14, 07:15:04,VALID,918.322,VALID,0,VALID,92.6321,VALID,65.754,VALID,19.9173,VALID,110,VALID,0.819531,
2014-02-14, 07:16:04,VALID,918.356,VALID,0,VALID,92.655,VALID,67.3656,VALID,19.9188,VALID,102,VALID,0.642578,
2014-02-14, 07:17:04,VALID,918.342,VALID,0,VALID,92.655,VALID,68.6549,VALID,19.9383,VALID,102,VALID,0.678125,
2014-02-14, 07:18:04,VALID,918.341,VALID,0,VALID,92.7998,VALID,70.1591,VALID,19.9173,VALID,102,VALID,0.923437,
2014-02-14, 07:19:04,VALID,918.349,VALID,0,VALID,92.9904,VALID,70.8037,VALID,19.9563,VALID,129,VALID,1.32734,
2014-02-14, 07:20:04,VALID,918.339,VALID,0,VALID,93.0133,VALID,71.8781,VALID,20.0343,VALID,132,VALID,1.06836,
2014-02-14, 07:21:04,VALID,918.34,VALID,0,VALID,92.7617,VALID,74.6716,VALID,20.1529,VALID,148,VALID,1.32734,
2014-02-14, 07:22:04,VALID,918.363,VALID,0,VALID,92.3729,VALID,76.8204,VALID,20.2098,VALID,136,VALID,1.225,
2014-02-14, 07:23:04,VALID,918.363,VALID,0,VALID,92.0604,VALID,79.2916,VALID,20.2699,VALID,132,VALID,1.08828,
2014-02-14, 07:24:04,VALID,918.371,VALID,0,VALID,91.885,VALID,83.5892,VALID,20.3074,VALID,132,VALID,0.814062,
2014-02-14, 07:25:04,VALID,918.374,VALID,0,VALID,91.6868,VALID,85.5232,VALID,20.3269,VALID,128,VALID,1.50898,
2014-02-14, 07:26:04,VALID,918.434,VALID,0,VALID,91.5725,VALID,84.5562,VALID,20.4064,VALID,111,VALID,0.572266,
2014-02-14, 07:27:04,VALID,918.425,VALID,0,VALID,91.3514,VALID,85.4157,VALID,20.4439,VALID,138,VALID,0.832812,
2014-02-14, 07:28:04,VALID,918.435,VALID,0,VALID,91.1684,VALID,81.1181,VALID,20.4829,VALID,155,VALID,0.848047,
2014-02-14, 07:29:04,VALID,918.432,VALID,0,VALID,90.9626,VALID,81.7627,VALID,20.5219,VALID,136,VALID,0.910156,
2014-02-14, 07:30:04,VALID,918.488,VALID,0,VALID,90.7415,VALID,85.4157,VALID,20.5414,VALID,156,VALID,1.05703,
2014-02-14, 07:31:04,VALID,918.515,VALID,0,VALID,90.6195,VALID,90.8952,VALID,20.5804,VALID,133,VALID,1.34063,
2014-02-14, 07:32:04,VALID,918.547,VALID,0,VALID,90.3832,VALID,94.3333,VALID,20.5999,VALID,113,VALID,1.55508,
2014-02-14, 07:33:04,VALID,918.587,VALID,0,VALID,90.2841,VALID,96.4822,VALID,20.678,VALID,129,VALID,0.829297,
2014-02-14, 07:34:04,VALID,918.583,VALID,0,VALID,89.8725,VALID,96.9119,VALID,20.7381,VALID,126,VALID,1.31445,
2014-02-14, 07:35:04,VALID,918.594,VALID,0,VALID,89.659,VALID,97.0194,VALID,20.795,VALID,135,VALID,1.36445,
2014-02-14, 07:37:04,VALID,918.636,VALID,0,VALID,89.1101,VALID,98.4161,VALID,20.8925,VALID,129,VALID,1.13398,
2014-02-14, 07:38:04,VALID,918.623,VALID,0,VALID,88.95,VALID,99.3831,VALID,20.912,VALID,133,VALID,1.5125,
2014-02-14, 07:39:04,VALID,918.643,VALID,0,VALID,88.9119,VALID,101.854,VALID,20.912,VALID,140,VALID,1.46211,
2014-02-14, 07:40:04,VALID,918.647,VALID,0,VALID,88.7594,VALID,104.863,VALID,20.9511,VALID,140,VALID,1.68125,
2014-02-14, 07:41:04,VALID,918.689,VALID,0,VALID,88.668,VALID,108.73,VALID,20.9511,VALID,146,VALID,1.70156,
2014-02-14, 07:42:04,VALID,918.651,VALID,0,VALID,88.5155,VALID,115.177,VALID,20.9901,VALID,151,VALID,1.55938,
2014-02-14, 07:43:04,VALID,918.698,VALID,0,VALID,88.2639,VALID,121.409,VALID,21.0096,VALID,133,VALID,1.97187,
2014-02-14, 07:44:04,VALID,918.7,VALID,0,VALID,88.2334,VALID,127.855,VALID,21.0486,VALID,148,VALID,0.861328,
2014-02-14, 07:45:04,VALID,918.729,VALID,0,VALID,88.1191,VALID,133.12,VALID,21.0876,VALID,159,VALID,1.26055,
2014-02-14, 07:46:04,VALID,918.782,VALID,0,VALID,87.9742,VALID,133.657,VALID,21.1266,VALID,142,VALID,1.32617,
2014-02-14, 07:47:04,VALID,918.795,VALID,0,VALID,87.7074,VALID,132.905,VALID,21.1657,VALID,132,VALID,1.63047,
2014-02-14, 07:48:04,VALID,918.778,VALID,0,VALID,87.5397,VALID,129.681,VALID,21.164,VALID,152,VALID,1.58281,
2014-02-14, 07:49:04,VALID,918.794,VALID,0,VALID,87.654,VALID,124.632,VALID,21.2031,VALID,125,VALID,1.43906,
2014-02-14, 07:50:04,VALID,918.789,VALID,0,VALID,87.433,VALID,135.161,VALID,21.2437,VALID,127,VALID,1.57227,
2014-02-14, 07:51:04,VALID,918.817,VALID,0,VALID,87.2424,VALID,139.459,VALID,21.2648,VALID,133,VALID,1.30547,
2014-02-14, 07:52:04,VALID,918.814,VALID,0,VALID,87.0594,VALID,143.541,VALID,21.2827,VALID,125,VALID,1.7957,
2014-02-14, 07:53:04,VALID,918.817,VALID,0,VALID,86.846,VALID,146.12,VALID,21.3608,VALID,145,VALID,1.36875,
2014-02-14, 07:54:04,VALID,918.844,VALID,0,VALID,86.8078,VALID,145.26,VALID,21.3803,VALID,141,VALID,1.16953,
2014-02-14, 07:55:04,VALID,918.828,VALID,0,VALID,86.9146,VALID,144.293,VALID,21.4388,VALID,146,VALID,0.891797,
2014-02-14, 07:56:04,VALID,918.833,VALID,0,VALID,86.015,VALID,146.657,VALID,21.4583,VALID,140,VALID,1.46094,
2014-02-14, 07:57:04,VALID,918.831,VALID,0,VALID,85.9693,VALID,147.194,VALID,21.5185,VALID,139,VALID,1.25078,
2014-02-14, 07:58:04,VALID,918.867,VALID,0,VALID,85.489,VALID,152.674,VALID,21.5152,VALID,141,VALID,1.77344,
2014-02-14, 07:59:04,VALID,918.882,VALID,0,VALID,85.3823,VALID,157.616,VALID,21.5754,VALID,156,VALID,1.52813,
2014-02-14, 08:00:04,VALID,918.919,VALID,0,VALID,85.7177,VALID,161.806,VALID,21.5737,VALID,133,VALID,1.82383,
2014-02-14, 08:01:04,VALID,918.926,VALID,0,VALID,85.0697,VALID,166.856,VALID,21.5932,VALID,133,VALID,2.04805,
2014-02-14, 08:02:04,VALID,918.941,VALID,0,VALID,85.2908,VALID,167.393,VALID,21.6339,VALID,126,VALID,1.57344,
2014-02-14, 08:03:04,VALID,918.985,VALID,0,VALID,85.0697,VALID,167.931,VALID,21.6534,VALID,125,VALID,1.55625,
2014-02-14, 08:04:04,VALID,918.979,VALID,0,VALID,85.2222,VALID,171.261,VALID,21.6518,VALID,119,VALID,1.83672,
2014-02-14, 08:05:04,VALID,919.008,VALID,0,VALID,85.5195,VALID,176.741,VALID,21.6908,VALID,105,VALID,1.22422,
2014-02-14, 08:06:04,VALID,918.981,VALID,0,VALID,86.0836,VALID,178.245,VALID,21.751,VALID,102,VALID,1.06211,
2014-02-14, 08:07:04,VALID,919,VALID,0,VALID,85.3518,VALID,180.394,VALID,21.79,VALID,129,VALID,1.36836,
2014-02-14, 08:08:04,VALID,919.017,VALID,0,VALID,85.1383,VALID,180.823,VALID,21.8485,VALID,126,VALID,0.991406,
2014-02-14, 08:09:04,VALID,918.986,VALID,0,VALID,84.7419,VALID,178.245,VALID,21.9071,VALID,123,VALID,1.63398,
2014-02-14, 08:10:04,VALID,919.029,VALID,0,VALID,84.0634,VALID,177.385,VALID,21.9461,VALID,155,VALID,1.5793,
2014-02-14, 08:11:04,VALID,919.047,VALID,0,VALID,84.2311,VALID,170.617,VALID,21.9851,VALID,120,VALID,1.52188,
2014-02-14, 08:12:04,VALID,919.08,VALID,0,VALID,83.7432,VALID,182.65,VALID,22.0047,VALID,135,VALID,1.51602,
2014-02-14, 08:13:04,VALID,919.071,VALID,0,VALID,82.9046,VALID,189.956,VALID,22.0437,VALID,129,VALID,1.70703,
2014-02-14, 08:14:04,VALID,919.087,VALID,0,VALID,83.1715,VALID,197.155,VALID,22.0437,VALID,118,VALID,1.85938,
2014-02-14, 08:15:04,VALID,919.114,VALID,0,VALID,83.9872,VALID,204.246,VALID,22.0827,VALID,138,VALID,1.07383,
2014-02-14, 08:16:04,VALID,919.102,VALID,0,VALID,83.8804,VALID,210.37,VALID,22.1608,VALID,147,VALID,0.721875,
2014-02-14, 08:17:04,VALID,919.103,VALID,0,VALID,82.9199,VALID,212.948,VALID,22.2193,VALID,141,VALID,1.73477,
2014-02-14, 08:18:04,VALID,919.096,VALID,0,VALID,82.493,VALID,206.717,VALID,22.26,VALID,158,VALID,1.38164,
2014-02-14, 08:19:04,VALID,919.122,VALID,0,VALID,82.1423,VALID,204.138,VALID,22.2583,VALID,137,VALID,1.79453,
2014-02-14, 08:20:04,VALID,919.126,VALID,0,VALID,82.3863,VALID,199.411,VALID,22.2583,VALID,158,VALID,1.31836,
2014-02-14, 08:21:04,VALID,919.104,VALID,0,VALID,82.6226,VALID,206.717,VALID,22.2371,VALID,155,VALID,1.06602,
2014-02-14, 08:22:04,VALID,919.138,VALID,0,VALID,82.6378,VALID,214.238,VALID,22.2583,VALID,153,VALID,1.15313,
2014-02-14, 08:23:04,VALID,919.111,VALID,0,VALID,82.8894,VALID,217.676,VALID,22.2583,VALID,163,VALID,0.892969,
2014-02-14, 08:24:04,VALID,919.101,VALID,0,VALID,83.4535,VALID,225.841,VALID,22.2371,VALID,160,VALID,1.72109,
2014-02-14, 08:25:04,VALID,919.124,VALID,0,VALID,83.141,VALID,235.941,VALID,22.1803,VALID,172,VALID,1.50977,
2014-02-14, 08:26:04,VALID,919.074,VALID,0,VALID,83.2629,VALID,237.875,VALID,22.1608,VALID,169,VALID,1.93438,
2014-02-14, 08:27:04,VALID,919.093,VALID,0,VALID,84.1854,VALID,234.114,VALID,22.1591,VALID,116,VALID,1.09687,
2014-02-14, 08:28:04,VALID,919.098,VALID,0,VALID,83.3316,VALID,234.222,VALID,22.2388,VALID,148,VALID,1.21758,
2014-02-14, 08:29:04,VALID,919.118,VALID,0,VALID,82.836,VALID,239.271,VALID,22.2371,VALID,141,VALID,1.93867,
2014-02-14, 08:30:04,VALID,919.165,VALID,0,VALID,83.2248,VALID,244.858,VALID,22.2762,VALID,154,VALID,1.29883,
2014-02-14, 08:31:04,VALID,919.141,VALID,0,VALID,83.0419,VALID,246.255,VALID,22.3152,VALID,115,VALID,1.5207,
2014-02-14, 08:32:04,VALID,919.151,VALID,0,VALID,83.6517,VALID,258.396,VALID,22.3542,VALID,160,VALID,0.643359,
2014-02-14, 08:33:04,VALID,919.167,VALID,0,VALID,81.723,VALID,264.735,VALID,22.4128,VALID,148,VALID,1.55586,
2014-02-14, 08:34:04,VALID,919.149,VALID,0,VALID,82.1804,VALID,268.603,VALID,22.4535,VALID,131,VALID,1.12656,
2014-02-14, 08:35:04,VALID,919.13,VALID,0,VALID,81.906,VALID,265.165,VALID,22.4145,VALID,144,VALID,1.48164,
2014-02-14, 08:36:04,VALID,919.137,VALID,0,VALID,82.8132,VALID,263.016,VALID,22.3933,VALID,172,VALID,0.911328,
2014-02-14, 08:37:04,VALID,919.131,VALID,0,VALID,83.2629,VALID,266.454,VALID,22.4713,VALID,159,VALID,1.02148,
2014-02-14, 08:38:04,VALID,919.12,VALID,0,VALID,81.4791,VALID,274.512,VALID,22.5494,VALID,143,VALID,1.95273,
2014-02-14, 08:39:04,VALID,919.126,VALID,0,VALID,81.8984,VALID,280.207,VALID,22.5494,VALID,144,VALID,1.37422,
2014-02-14, 08:40:04,VALID,919.13,VALID,0,VALID,82.0584,VALID,284.504,VALID,22.6079,VALID,151,VALID,1.33047,
2014-02-14, 08:41:04,VALID,919.127,VALID,0,VALID,82.1652,VALID,289.984,VALID,22.686,VALID,139,VALID,0.926562,
2014-02-14, 08:42:04,VALID,919.128,VALID,0,VALID,81.0903,VALID,289.232,VALID,22.7641,VALID,164,VALID,0.567969,
2014-02-14, 08:43:04,VALID,919.134,VALID,0,VALID,80.2288,VALID,292.777,VALID,22.8421,VALID,166,VALID,1.05664,
2014-02-14, 08:44:04,VALID,919.114,VALID,0,VALID,80.8616,VALID,294.819,VALID,22.9007,VALID,163,VALID,1.17891,
2014-02-14, 08:45:04,VALID,919.106,VALID,0,VALID,80.1831,VALID,297.182,VALID,22.8616,VALID,157,VALID,1.31641,
2014-02-14, 08:46:04,VALID,919.125,VALID,0,VALID,80.8311,VALID,307.604,VALID,22.8616,VALID,127,VALID,1.30273,
2014-02-14, 08:47:04,VALID,919.155,VALID,0,VALID,80.9531,VALID,312.439,VALID,22.8812,VALID,134,VALID,0.760547,
2014-02-14, 08:48:04,VALID,919.143,VALID,0,VALID,79.5351,VALID,313.621,VALID,22.9202,VALID,118,VALID,0.824609,
2014-02-14, 08:49:04,VALID,919.148,VALID,0,VALID,79.9849,VALID,311.794,VALID,22.9787,VALID,149,VALID,0.979688,
2014-02-14, 08:50:04,VALID,919.162,VALID,0,VALID,78.3154,VALID,321.894,VALID,23.0356,VALID,136,VALID,0.304297,
2014-02-14, 08:51:04,VALID,919.195,VALID,0,VALID,79.1768,VALID,312.117,VALID,23.2343,VALID,142,VALID,0.502734,
2014-02-14, 08:52:04,VALID,919.191,VALID,0,VALID,76.7373,VALID,277.735,VALID,23.2733,VALID,185,VALID,0.945703,
2014-02-14, 08:53:04,VALID,919.195,VALID,0,VALID,77.8884,VALID,252.916,VALID,23.213,VALID,168,VALID,1.18008,
2014-02-14, 08:54:04,VALID,919.19,VALID,0,VALID,77.8961,VALID,228.098,VALID,23.2147,VALID,164,VALID,1.54141,
2014-02-14, 08:55:04,VALID,919.209,VALID,0,VALID,78.0485,VALID,237.445,VALID,23.1171,VALID,184,VALID,1.36289,
2014-02-14, 08:56:04,VALID,919.255,VALID,0,VALID,78.9633,VALID,258.289,VALID,23.1154,VALID,163,VALID,0.78125,
2014-02-14, 08:57:04,VALID,919.229,VALID,0,VALID,78.8566,VALID,321.034,VALID,23.1739,VALID,127,VALID,1.11797,
2014-02-14, 08:58:04,VALID,919.228,VALID,0,VALID,78.4907,VALID,334.572,VALID,23.1349,VALID,129,VALID,1.91602,
2014-02-14, 08:59:04,VALID,919.238,VALID,0,VALID,79.3826,VALID,334.464,VALID,23.0763,VALID,160,VALID,0.6875,
2014-02-14, 09:00:04,VALID,919.231,VALID,0,VALID,80.4804,VALID,300.62,VALID,23.1544,VALID,130,VALID,1.5875,
2014-02-14, 09:01:04,VALID,919.224,VALID,0,VALID,78.384,VALID,325.224,VALID,23.1154,VALID,92,VALID,2.62734,
2014-02-14, 09:02:04,VALID,919.288,VALID,0,VALID,79.3064,VALID,341.018,VALID,23.1171,VALID,106,VALID,0.330078,
2014-02-14, 09:03:04,VALID,919.266,VALID,0,VALID,79.3445,VALID,346.175,VALID,23.2538,VALID,155,VALID,0.882813,
2014-02-14, 09:04:04,VALID,919.259,VALID,0,VALID,79.0624,VALID,357.134,VALID,23.3301,VALID,83,VALID,1.02734,
2014-02-14, 09:05:04,VALID,919.314,VALID,0,VALID,78.9557,VALID,369.49,VALID,23.3691,VALID,122,VALID,1.51563,
2014-02-14, 09:06:04,VALID,919.29,VALID,0,VALID,77.5149,VALID,378.193,VALID,23.3496,VALID,99,VALID,0.661328,
2014-02-14, 09:07:04,VALID,919.325,VALID,0,VALID,78.8566,VALID,375.937,VALID,23.465,VALID,108,VALID,0.414063,
2014-02-14, 09:08:04,VALID,919.316,VALID,0,VALID,77.675,VALID,361.754,VALID,23.662,VALID,111,VALID,0.611719,
2014-02-14, 09:09:04,VALID,919.315,VALID,0,VALID,75.9521,VALID,395.706,VALID,23.7578,VALID,165,VALID,1.61367,
2014-02-14, 09:10:04,VALID,919.312,VALID,0,VALID,75.975,VALID,404.086,VALID,23.7773,VALID,192,VALID,0.955469,
2014-02-14, 09:11:04,VALID,919.327,VALID,0,VALID,75.7691,VALID,404.946,VALID,23.8767,VALID,194,VALID,0.753125,
2014-02-14, 09:12:04,VALID,919.317,VALID,0,VALID,74.3283,VALID,383.028,VALID,23.953,VALID,128,VALID,0.953125,
2014-02-14, 09:13:04,VALID,919.327,VALID,0,VALID,75.0983,VALID,362.506,VALID,24.0311,VALID,171,VALID,0.762891,
2014-02-14, 09:14:04,VALID,919.296,VALID,0,VALID,75.7615,VALID,281.066,VALID,24.1092,VALID,156,VALID,0.941797,
2014-02-14, 09:15:04,VALID,919.293,VALID,0,VALID,73.2077,VALID,297.719,VALID,24.1092,VALID,175,VALID,1.18125,
2014-02-14, 09:16:04,VALID,919.273,VALID,0,VALID,74.153,VALID,292.24,VALID,23.9121,VALID,118,VALID,1.46445,
2014-02-14, 09:17:04,VALID,919.271,VALID,0,VALID,74.4427,VALID,394.631,VALID,23.8536,VALID,182,VALID,0.528516,
2014-02-14, 09:18:04,VALID,919.292,VALID,0,VALID,74.9687,VALID,392.483,VALID,23.9103,VALID,135,VALID,0.297656,
2014-02-14, 09:19:04,VALID,919.255,VALID,0,VALID,74.2597,VALID,403.656,VALID,24.1305,VALID,161,VALID,1.07656,
2014-02-14, 09:20:04,VALID,919.31,VALID,0,VALID,73.8328,VALID,402.582,VALID,24.2226,VALID,193,VALID,0.264062,
2014-02-14, 09:21:04,VALID,919.318,VALID,0,VALID,71.9879,VALID,415.582,VALID,24.3258,VALID,167,VALID,0.828125,
2014-02-14, 09:22:04,VALID,919.315,VALID,0,VALID,73.1695,VALID,430.517,VALID,24.4234,VALID,134,VALID,0.367969,
2014-02-14, 09:23:04,VALID,919.331,VALID,0,VALID,72.3691,VALID,419.665,VALID,24.4997,VALID,164,VALID,0.65625,
2014-02-14, 09:24:04,VALID,919.337,VALID,0,VALID,73.3982,VALID,327.481,VALID,24.601,VALID,168,VALID,0.853906,
2014-02-14, 09:25:04,VALID,919.369,VALID,0,VALID,72.4682,VALID,383.887,VALID,24.5815,VALID,140,VALID,1.61719,
2014-02-14, 09:26:04,VALID,919.37,VALID,0,VALID,70.852,VALID,440.401,VALID,24.4234,VALID,110,VALID,1.86992,
2014-02-14, 09:27:04,VALID,919.334,VALID,0,VALID,73.383,VALID,431.484,VALID,24.3063,VALID,94,VALID,0.86875,
2014-02-14, 09:28:04,VALID,919.333,VALID,0,VALID,74.0462,VALID,333.175,VALID,24.3648,VALID,94,VALID,0.628906,
2014-02-14, 09:29:04,VALID,919.359,VALID,0,VALID,74.5951,VALID,341.126,VALID,24.4801,VALID,94,VALID,0.558203,
2014-02-14, 09:30:04,VALID,919.383,VALID,0,VALID,72.9713,VALID,458.451,VALID,24.4978,VALID,94,VALID,0.779688,
2014-02-14, 09:31:04,VALID,919.368,VALID,0,VALID,74.9763,VALID,440.401,VALID,24.5192,VALID,100,VALID,1.00742,
2014-02-14, 09:32:04,VALID,919.39,VALID,0,VALID,73.9624,VALID,397.855,VALID,24.6168,VALID,25,VALID,1.81875,
2014-02-14, 09:33:04,VALID,919.363,VALID,0,VALID,72.9561,VALID,349.076,VALID,24.4978,VALID,38,VALID,1.98359,
2014-02-14, 09:34:04,VALID,919.37,VALID,0,VALID,76.5467,VALID,296.752,VALID,24.4216,VALID,24,VALID,2.26055,
2014-02-14, 09:35:04,VALID,919.374,VALID,0,VALID,73.6879,VALID,271.504,VALID,24.4587,VALID,16,VALID,0.896875,
2014-02-14, 09:36:04,VALID,919.394,VALID,0,VALID,74.2292,VALID,280.314,VALID,24.4997,VALID,16,VALID,1.47812,
2014-02-14, 09:37:04,VALID,919.385,VALID,0,VALID,75.2431,VALID,333.175,VALID,24.3611,VALID,20,VALID,1.42031,
2014-02-14, 09:38:04,VALID,919.397,VALID,0,VALID,76.8745,VALID,277.521,VALID,24.1055,VALID,26,VALID,1.35078,
2014-02-14, 09:39:04,VALID,919.38,VALID,0,VALID,76.0283,VALID,292.025,VALID,24.1714,VALID,4,VALID,0.626562,
2014-02-14, 09:40:04,VALID,919.406,VALID,0,VALID,76.562,VALID,301.265,VALID,24.23,VALID,4,VALID,0.440234,
2014-02-14, 09:41:04,VALID,919.411,VALID,0,VALID,76.9889,VALID,303.629,VALID,24.2672,VALID,9,VALID,1.59961,
2014-02-14, 09:42:04,VALID,919.416,VALID,0,VALID,77.4539,VALID,288.587,VALID,24.244,VALID,7,VALID,1.83164,
2014-02-14, 09:43:04,VALID,919.422,VALID,0,VALID,74.9534,VALID,269.462,VALID,24.244,VALID,2,VALID,0.894141,
2014-02-14, 09:44:04,VALID,919.392,VALID,0,VALID,75.7234,VALID,251.735,VALID,24.3063,VALID,6,VALID,0.927344,
2014-02-14, 09:45:04,VALID,919.37,VALID,0,VALID,77.0727,VALID,243.891,VALID,24.3258,VALID,37,VALID,1.40195,
2014-02-14, 09:46:04,VALID,919.393,VALID,0,VALID,76.1351,VALID,245.718,VALID,24.3416,VALID,13,VALID,1.00586,
2014-02-14, 09:47:04,VALID,919.358,VALID,0,VALID,76.0817,VALID,252.594,VALID,24.4002,VALID,13,VALID,0.517969,
2014-02-14, 09:48:04,VALID,919.381,VALID,0,VALID,74.7476,VALID,299.009,VALID,24.4178,VALID,13,VALID,0.701172,
2014-02-14, 09:49:04,VALID,919.38,VALID,0,VALID,75.1364,VALID,269.462,VALID,24.4643,VALID,19,VALID,1.06562,
2014-02-14, 09:50:04,VALID,919.381,VALID,0,VALID,74.0462,VALID,299.116,VALID,24.4606,VALID,11,VALID,1.47148,
2014-02-14, 09:51:04,VALID,919.362,VALID,0,VALID,74.0691,VALID,318.348,VALID,24.3593,VALID,11,VALID,0.667969,
2014-02-14, 09:52:04,VALID,919.349,VALID,0,VALID,75.1059,VALID,326.299,VALID,24.3221,VALID,11,VALID,0.478125,
2014-02-14, 09:53:04,VALID,919.363,VALID,0,VALID,74.9763,VALID,366.052,VALID,24.3416,VALID,11,VALID,0.387891,
2014-02-14, 09:54:04,VALID,919.36,VALID,0,VALID,75.0144,VALID,469.196,VALID,24.5778,VALID,11,VALID,0.339453,
2014-02-14, 09:55:04,VALID,919.335,VALID,0,VALID,73.9166,VALID,520.66,VALID,24.7535,VALID,11,VALID,0.827344,
2014-02-14, 09:56:04,VALID,919.318,VALID,0,VALID,73.383,VALID,478.65,VALID,24.7321,VALID,11,VALID,0.490234,
2014-02-14, 09:57:04,VALID,919.284,VALID,0,VALID,73.5736,VALID,524.635,VALID,24.8726,VALID,11,VALID,0.569141,
2014-02-14, 09:58:04,VALID,919.274,VALID,0,VALID,71.7363,VALID,448.352,VALID,24.9878,VALID,13,VALID,0.589453,
2014-02-14, 09:59:04,VALID,919.28,VALID,0,VALID,71.805,VALID,462.212,VALID,25.1031,VALID,349,VALID,0.712109,
2014-02-14, 10:00:04,VALID,919.283,VALID,0,VALID,71.2942,VALID,539.569,VALID,24.9488,VALID,272,VALID,0.708203,
2014-02-14, 10:01:04,VALID,919.295,VALID,0,VALID,71.2103,VALID,572.554,VALID,24.8883,VALID,275,VALID,0.588672,
2014-02-14, 10:02:04,VALID,919.286,VALID,0,VALID,72.0489,VALID,576.744,VALID,24.9878,VALID,271,VALID,0.580078,
2014-02-14, 10:03:04,VALID,919.312,VALID,0,VALID,70.6386,VALID,555.901,VALID,25.1031,VALID,271,VALID,0.90625,
2014-02-14, 10:04:04,VALID,919.34,VALID,0,VALID,70.2803,VALID,550.851,VALID,25.0836,VALID,272,VALID,0.817969,
2014-02-14, 10:05:04,VALID,919.339,VALID,0,VALID,70.8901,VALID,566,VALID,25.025,VALID,271,VALID,0.276172,
2014-02-14, 10:06:04,VALID,919.318,VALID,0,VALID,70.631,VALID,582.761,VALID,25.2027,VALID,271,VALID,0.240625,
2014-02-14, 10:07:04,VALID,919.289,VALID,0,VALID,67.0327,VALID,618.109,VALID,25.3589,VALID,259,VALID,1.23867,
2014-02-14, 10:08:04,VALID,919.302,VALID,0,VALID,67.2538,VALID,628.208,VALID,25.3394,VALID,227,VALID,0.861328,
2014-02-14, 10:09:04,VALID,919.32,VALID,0,VALID,67.7112,VALID,614.134,VALID,25.2632,VALID,245,VALID,0.803516,
2014-02-14, 10:10:04,VALID,919.338,VALID,0,VALID,68.2906,VALID,582.116,VALID,25.3003,VALID,249,VALID,0.535547,
2014-02-14, 10:11:04,VALID,919.328,VALID,0,VALID,67.9246,VALID,564.926,VALID,25.4175,VALID,249,VALID,1.05,
2014-02-14, 10:12:04,VALID,919.28,VALID,0,VALID,68.0847,VALID,503.899,VALID,25.4565,VALID,305,VALID,1.15273,
2014-02-14, 10:13:04,VALID,919.283,VALID,0,VALID,68.2372,VALID,561.81,VALID,25.5151,VALID,305,VALID,0.832812,
2014-02-14, 10:14:04,VALID,919.272,VALID,0,VALID,67.7569,VALID,587.381,VALID,25.6499,VALID,41,VALID,1.37305,
2014-02-14, 10:15:04,VALID,919.255,VALID,0,VALID,68.8776,VALID,582.116,VALID,25.6909,VALID,60,VALID,1.51406,
2014-02-14, 10:16:04,VALID,919.249,VALID,0,VALID,68.5116,VALID,618.646,VALID,25.7886,VALID,43,VALID,1.78281,
2014-02-14, 10:17:04,VALID,919.275,VALID,0,VALID,67.6349,VALID,644.539,VALID,26.0425,VALID,11,VALID,0.883203,
2014-02-14, 10:18:04,VALID,919.298,VALID,0,VALID,65.6757,VALID,650.126,VALID,26.0621,VALID,125,VALID,1.71445,
2014-02-14, 10:19:04,VALID,919.291,VALID,0,VALID,65.9883,VALID,673.441,VALID,25.8843,VALID,101,VALID,0.988672,
2014-02-14, 10:20:04,VALID,919.256,VALID,0,VALID,64.7762,VALID,680.855,VALID,25.9644,VALID,55,VALID,1.57344,
2014-02-14, 10:21:04,VALID,919.23,VALID,0,VALID,65.0354,VALID,679.78,VALID,26.0601,VALID,41,VALID,0.626953,
2014-02-14, 10:22:04,VALID,919.2,VALID,0,VALID,63.2515,VALID,673.871,VALID,26.277,VALID,312,VALID,1.12109,
2014-02-14, 10:23:04,VALID,919.201,VALID,0,VALID,64.3721,VALID,653.672,VALID,26.275,VALID,179,VALID,1.85703,
2014-02-14, 10:24:04,VALID,919.182,VALID,0,VALID,63.1829,VALID,682.681,VALID,26.1968,VALID,188,VALID,0.691016,
2014-02-14, 10:25:04,VALID,919.165,VALID,0,VALID,63.4344,VALID,703.954,VALID,26.314,VALID,188,VALID,0.275,
2014-02-14, 10:26:04,VALID,919.131,VALID,0,VALID,64.6237,VALID,694.07,VALID,26.4703,VALID,129,VALID,1.39297,
2014-02-14, 10:27:04,VALID,919.138,VALID,0,VALID,63.5183,VALID,698.905,VALID,26.4919,VALID,87,VALID,1.51094,
2014-02-14, 10:28:04,VALID,919.149,VALID,0,VALID,65.5233,VALID,687.194,VALID,26.2359,VALID,89,VALID,1.46172,
2014-02-14, 10:29:04,VALID,919.142,VALID,0,VALID,65.2717,VALID,648.837,VALID,26.1187,VALID,95,VALID,1.3668,
2014-02-14, 10:30:04,VALID,919.155,VALID,0,VALID,64.3645,VALID,699.872,VALID,25.9234,VALID,96,VALID,0.312109,
2014-02-14, 10:31:04,VALID,919.114,VALID,0,VALID,64.6923,VALID,669.143,VALID,26.0796,VALID,96,VALID,0.285156,
2014-02-14, 10:32:04,VALID,919.129,VALID,0,VALID,65.0125,VALID,466.939,VALID,26.273,VALID,112,VALID,0.824609,
2014-02-14, 10:33:04,VALID,919.14,VALID,0,VALID,62.512,VALID,622.729,VALID,26.1968,VALID,124,VALID,1.45313,
2014-02-14, 10:34:04,VALID,919.134,VALID,0,VALID,63.9681,VALID,678.491,VALID,26.0796,VALID,72,VALID,1.17578,
2014-02-14, 10:35:04,VALID,919.104,VALID,0,VALID,63.4497,VALID,680.317,VALID,26.1382,VALID,134,VALID,0.457422,
2014-02-14, 10:36:04,VALID,919.122,VALID,0,VALID,63.7394,VALID,680.747,VALID,26.3531,VALID,67,VALID,0.690234,
2014-02-14, 10:37:04,VALID,919.098,VALID,0,VALID,62.5959,VALID,694.285,VALID,26.6266,VALID,46,VALID,1.03047,
2014-02-14, 10:38:04,VALID,919.107,VALID,0,VALID,61.9631,VALID,692.351,VALID,26.7809,VALID,54,VALID,0.329688,
2014-02-14, 10:39:04,VALID,919.066,VALID,0,VALID,61.6734,VALID,687.516,VALID,26.7438,VALID,208,VALID,1.07734,
2014-02-14, 10:40:04,VALID,919.057,VALID,0,VALID,63.8842,VALID,688.161,VALID,26.7634,VALID,63,VALID,1.56836,
2014-02-14, 10:41:04,VALID,919.043,VALID,0,VALID,61.4219,VALID,708.145,VALID,26.4683,VALID,113,VALID,1.48906,
2014-02-14, 10:42:04,VALID,918.997,VALID,0,VALID,63.7851,VALID,714.591,VALID,26.2339,VALID,58,VALID,1.53867,
2014-02-14, 10:43:04,VALID,918.993,VALID,0,VALID,66.2704,VALID,705.351,VALID,26.1362,VALID,52,VALID,1.92813,
2014-02-14, 10:44:04,VALID,918.965,VALID,0,VALID,62.3977,VALID,700.409,VALID,26.0796,VALID,44,VALID,3.02891,
2014-02-14, 10:45:04,VALID,919.006,VALID,0,VALID,62.0165,VALID,696.971,VALID,25.9234,VALID,27,VALID,1.4293,
2014-02-14, 10:46:04,VALID,918.994,VALID,0,VALID,64.3721,VALID,697.401,VALID,25.982,VALID,3,VALID,1.09687,